User: anonymous
Location: Vale
(35.4830°N, 81.3830°W)
Time: 17:20:17
(UTC-04:00)
Language:

Cosmos 2237 Rocket - Orbit

View from above orbital plane
View from above orbital plane
View from above satellite
View from above satellite

Ground track
Ground track

The orbit data is extracted from the following two-line orbital elements,

1 22566U 93016B   14244.75948528  .00000022  00000-0  36290-4 0  1353
2 22566 071.0096 046.6158 0012391 251.2295 108.7483 14.14856612107072
Epoch (UTC): 01 September 2014 18:13:39
Eccentricity: 0.0012391
inclination: 71.0096°
perigee height: 834 km
apogee height: 852 km
right ascension of ascending node: 46.6158°
argument of perigee: 251.2295°
revolutions per day: 14.14856612
mean anomaly at epoch: 108.7483°
orbit number at epoch: 10707

The dashed part of the orbit path shows where the satellite is in the earth's shadow,  

DLR